Location: Unspecified
(0.0000°N, 0.0000°E)
Time: 15:26:00
(UTC+00:00)

CZ-3C DEB - Pass Details

Date: 17 February 2026
Orbit: 380 x 28980 km, 20.3° (Epoch: 21 March)

Event Time Altitude Azimuth Distance (km) Brightness Sun altitude
Rises 19:16:02 0° 267° (W) 15,864 ? -15.2°
Reaches altitude 10° 19:32:39 10° 271° (W) 18,186 ? -19.2°
Enters shadow 01:40:11 23° 296° (WNW) 13,358 ? -65.6°
Exits shadow 02:23:13 - 101° (ESE) 3,199 ? -55.9°
Sets 02:24:02 0° 103° (ESE) 3,500 ? -55.7°
